Location: Newark
(23.3970°S, 47.6010°W)
Time: 05:42:44
(UTC+00:00)

Courier 1B - Visible Passes

Search period start: 25 February 2020 00:00
Search period end: 06 March 2020 00:00
Orbit: 962 x 1209 km, 28.3° (Epoch: 24 February)

Date Brightness Start Highest point End Pass type
(mag) Time Alt. Az. Time Alt. Az. Time Alt. Az.
25 Feb 8.7 06:02:26 38° ESE 06:02:26 38° ESE 06:06:34 10° ESE visible
25 Feb 8.0 07:49:20 18° WSW 07:54:21 58° S 08:01:21 10° E visible
26 Feb 10.1 05:12:05 13° ESE 05:12:05 13° ESE 05:12:39 10° ESE visible
26 Feb 7.9 06:58:59 47° SW 07:00:25 57° S 07:07:14 10° ESE visible
27 Feb 8.6 06:08:41 40° SE 06:08:41 40° SE 06:13:11 10° ESE visible
27 Feb 7.9 07:55:35 16° WSW 08:01:04 67° S 08:08:06 10° E visible
28 Feb 10.0 05:18:25 14° ESE 05:18:25 14° ESE 05:19:13 10° ESE visible
28 Feb 7.9 07:05:20 45° SW 07:07:11 60° S 07:13:59 10° E visible
29 Feb 8.5 06:15:07 43° SE 06:15:07 43° SE 06:19:54 10° E visible
29 Feb 7.6 08:02:02 15° WSW 08:07:42 86° SSE 08:14:44 10° ENE visible
01 Mar 10.0 05:24:59 14° ESE 05:24:59 14° ESE 05:25:54 10° ESE visible
01 Mar 7.6 07:11:54 47° WSW 07:13:52 73° SSE 07:20:43 10° E visible
02 Mar 8.3 06:21:50 47° ESE 06:21:50 47° ESE 06:26:41 10° E visible
02 Mar 7.6 08:08:46 16° W 08:14:12 66° NNW 08:21:05 10° ENE visible
02 Mar 9.3 23:38:07 10° NNW 23:40:26 18° N 23:40:26 18° N visible
03 Mar 10.0 05:31:50 14° E 05:31:50 14° E 05:32:40 10° E visible
03 Mar 7.4 07:18:46 53° W 07:20:27 82° NNW 07:27:15 10° ENE visible
03 Mar 9.0 22:45:14 10° N 22:49:55 18° NNE 22:50:39 18° NE visible
04 Mar 9.9 00:36:58 10° NW 00:37:36 13° NW 00:37:36 13° NW visible
04 Mar 8.3 06:28:50 46° E 06:28:50 46° E 06:33:22 10° ENE visible
04 Mar 8.1 08:15:46 16° W 08:20:37 41° NNW 08:26:59 10° NE visible
04 Mar 9.4 21:52:59 10° N 21:56:08 13° NNE 21:59:12 10° ENE visible
04 Mar 8.6 23:43:20 10° NW 23:47:47 34° NNW 23:47:47 34° NNW visible
05 Mar 10.0 05:38:58 12° E 05:38:58 12° E 05:39:27 10° E visible
05 Mar 7.6 07:25:54 49° NW 07:26:55 53° NNW 07:33:26 10° NE visible
05 Mar 8.4 22:49:52 10° NNW 22:56:15 33° NNE 22:57:57 29° NE visible
